SCP
0 0 -0 0 -0 0 0 -0 -0 0 0 0 0 0 0 0 0 0 0 0 -0 -0 -0 0 -0 -0 -0 -0 -0 -0 -0 -0 -0 -0 -0 -0 -0 -0 -0 -0 -0 -0 -0 -0 0 0 0 0 0
0 0 0 0 -0 0 0 -0 -0 -0 0 0 0 0 0 0 0 -0 0 0 0 -0 -0 0 0 -0 -0 -0 -0 -0 -0 -0 -0 -0 -0 -0 -0 -0 -0 0 0 0 -0 0 0 0 0 0 0
0 0 0 0 -0 0 0 0 0 -0 -0 0 0 0 0 0 0 0 0 0 -0 -0 -0 0 -0 -0 -0 -0 -0 -0 -0 -0 -0 0 -0 -0 0 0 0 0 0 0 0 0 0 0 0 0 0
0 0 0 -0 0 0 0 0 0 0 0 0 0 -0 0 0 0 0 -0 -0 -0 -0 -0 0 0 -0 -0 0 -0 -0 -0 -0 0 -0 0 0 0 0 0 0 0 0 0 0 0 0 0 0 0
0 0 -0 -0 0 0 0 0 0 0 0 0 0 -0 0 0 0 0 0 -0 -0 0 0 0 0 -0 -0 0 -0 -0 -0 -0 -0 0 0 0 0 0 0 0 0 0 0 0 0 0 0 0 0
-0 0 -0 0 0 0 0 0 0 0 0 0 0 0 0 0 0 0 0 0 0 0 0 0 0 0 0 -0 -0 -0 -0 -0 0 0 0 -0 0 0 0 0 0 0 0 0 0 0 0 0 0
0 -0 -0 -0 0 0 0 -0 0 0 0 0 0 0 0 0 0 0 0 0 0 0 0 0 0 0 0 -0 -0 -0 0 0 -0 0 0 0 0 0 0 0 0 0 0 0 0 0 0 0 0
0 0 0 0 -0 0 0 0 0 0 0 0 0 0 0 0 0 0 0 0 0 0 0 0 0 0 0 -0 -0 -0 -0 -0 0 0 0 0 0 0 0 -0 0 0 0 0 0 0 0 0 0
0 0 0 -0 -0 0 0 0 0 0 0 0 0 0 0 0 0 0 0 0 0 0 0 0 0 -0 -0 -0 -0 -0 -0 -0 0 0 0 0 0 0 0 0 0 0 0 0 0 0 0 0 0
0 0 0 -0 -0 -0 -0 0 0 0 0 0 0 0 0 0 0 0 0 0 0 0 0 0 0 0 0 -0 0 0 0 0 0 0 0 0 0 0 0 0 0 0 0 0 0 0 0 0 0
0 0 0 0 0 0 0 0 0 0 0 0 0 0 0 0 0 0 0 0 0 0 0 -0 -0 0 0 0 0 0 0 0 0 0 0 0 0 0 0 0 0 0 0 0 0 0 0 0 0
0 0 0 0 0 0 0 0 0 0 0 0 0 0 0 0 0 0 0 0 -0 -0 -0 -0 -0 0 0 0 0 0 0 0 0 0 0 0 0 0 0 0 0 0 -0 0 0 0 0 0 0
0 0 0 0 0 0 0 0 0 0 0 0 0 0 0 0 0 0 0 0 -0 -0 -0 -0 0 0 0 0 0 0 0 0 0 0 0 0 0 0 0 0 0 -0 -0 -0 0 0 0 0 0
0 0 0 0 0 0 0 0 0 0 0 0 0 0 0 0 0 0 0 -0 -0 -0 0 0 0 0 0 0 0 0 0 0 0 0 0 0 0 0 0 0 0 0 0 0 0 0 0 0 0
0 0 0 0 0 0 0 0 0 0 0 0 0 -0 -0 0 0 0 0 0 0 0 0 0 0 0 0 0 0 0 0 0 0 0 0 0 0 0 0 0 0 0 0 0 0 0 0 0 0
0 0 0 0 0 0 0 0 0 0 0 -0 -0 -0 -0 0 0 0 0 0 0 0 0 0 0 0 0 0 0 0 0 0 0 0 0 0 0 0 0 0 0 0 0 0 0 0 0 0 0
0 0 0 0 0 0 0 0 0 0 0 -0 -0 -0 0 0 0 0 0 0 0 0 0 0 0 0 0 0 0 0 0 0 0 0 0 0 0 0 0 0 0 0 0 0 0 0 0 0 0
0 0 0 0 0 0 0 0 0 0 0 -0 -0 -0 0 0 0 0 0 0 0 0 0 0 0 0 0 0 0 0 0 0 0 0 0 0 0 0 0 0 0 0 0 0 0 0 0 0 0
0 0 0 0 0 0 0 0 0 0 0 0 -0 -0 -0 0 0 0 0 0 0 0 0 0 0 0 0 0 0 0 0 0 0 0 0 0 0 0 0 0 0 0 0 0 0 0 0 0 0
0 0 0 0 0 0 0 0 0 0 0 0 0 0 0 0 0 0 0 0 0 0 0 0 0 0 0 0 0 0 0 0 0 0 0 0 0 0 0 0 0 0 0 0 0 0 0 0 0
0 0 0 0 0 0 0 0 0 0 0 0 0 0 0 0 0 0 0 0 0 0 0 0 0 0 0 0 0 0 0 0 0 0 0 0 0 0 0 0 0 0 0 0 0 0 0 0 0
0 0 0 0 0 0 0 0 0 0 0 0 0 0 0 0 0 0 0 0 0 0 0 0 0 0 0 0 0 0 0 0 0 0 0 0 0 0 0 0 0 0 0 0 0 0 0 0 0
0 0 0 0 0 0 0 0 0 0 0 0 0 0 0 0 0 0 0 0 0 0 0 0 0 0 0 0 0 0 0 0 0 0 0 0 0 0 0 0 0 0 0 0 0 0 0 0 0
0 0 0 0 0 0 0 0 0 0 0 0 0 0 0 0 0 0 0 0 0 0 0 0 0 0 0 0 0 0 0 0 0 0 0 0 0 0 0 0 0 0 0 0 0 0 0 0 0
0 0 0 0 0 0 0 0 0 0 0 0 0 0 0 0 0 0 0 0 0 0 0 0 0 0 0 0 0 0 0 0 0 0 0 0 0 0 0 0 0 0 0 0 0 0 0 0 0
0 0 0 0 0 0 0 0 0 0 0 0 0 0 0 0 0 0 0 0 0 0 0 0 0 0 0 0 0 0 0 0 0 0 0 0 0 0 0 0 0 0 0 0 0 0 0 0 0
0 0 0 0 0 0 0 0 0 0 0 0 0 0 0 0 0 0 0 0 0 0 0 0 0 0 0 0 0 0 0 0 0 0 0 0 0 0 0 0 0 0 0 0 0 0 0 0 0
0 0 0 0 0 0 0 0 0 0 0 0 0 0 0 0 0 0 0 0 0 0 0 0 0 0 0 0 0 0 0 0 0 0 0 0 0 0 0 0 0 0 0 0 0 0 0 0 0
0 0 0 0 0 0 0 0 0 0 0 0 0 0 0 0 0 0 0 0 0 0 0 0 0 0 0 0 0 0 0 0 0 0 0 0 0 0 0 0 0 0 0 0 0 0 0 0 0
0 0 0 0 0 0 0 0 0 0 0 0 0 0 0 0 0 0 0 0 0 0 0 0 0 0 0 0 0 0 0 0 0 0 0 0 0 0 0 0 0 0 0 0 0 0 0 0 0
Wind_Speed_500mb
3 2 4 1 8 10 2 3 5 6 5 3 8 8 13 14 6 3 16 5 6 14 18 18 15 12 13 13 15 14 14 19 20 22 27 25 34 29 29 31 34 34 36 36 39 40 39 35 27
1 3 1 5 9 7 6 4 5 4 15 25 14 8 10 6 6 14 9 1 7 15 16 15 13 12 11 13 13 14 15 19 21 24 25 25 27 28 32 33 36 37 37 40 41 37 31 35 36
3 3 3 8 6 6 6 8 9 12 25 4 9 12 6 7 13 11 5 1 8 14 14 13 13 12 13 11 12 14 15 15 14 20 23 23 28 29 31 35 38 37 40 38 31 29 30 33 32
2 4 9 8 2 3 1 12 15 14 8 4 15 12 12 10 9 6 3 4 10 14 13 11 11 12 13 13 10 13 12 15 13 11 18 21 28 28 30 34 33 37 40 31 28 26 24 30 36
3 7 8 8 5 5 7 9 21 7 5 8 2 7 10 10 8 8 3 5 10 12 10 9 11 11 14 12 9 9 10 12 12 15 16 18 22 23 25 31 32 33 29 26 28 29 25 33 30
5 6 9 5 4 6 6 9 10 9 9 6 9 12 7 12 11 10 4 3 8 10 9 9 8 10 12 13 15 13 12 12 15 17 15 18 19 21 23 35 30 32 29 31 31 28 35 34 31
9 7 8 10 5 2 7 10 7 7 14 4 15 9 8 23 19 12 6 1 7 8 10 12 11 10 12 11 13 11 14 15 14 17 20 22 23 25 26 38 30 28 28 28 34 37 38 34 33
7 9 7 4 10 8 11 18 6 9 6 15 7 6 6 30 25 19 11 3 5 10 11 12 8 8 8 9 8 15 16 15 17 21 23 24 25 26 26 33 26 25 29 33 32 35 34 31 30
5 9 5 13 14 8 23 7 9 8 14 10 8 4 4 31 28 22 14 8 7 9 8 7 8 4 7 9 12 13 14 18 20 22 24 24 24 27 24 28 21 27 32 32 32 32 32 33 33
8 7 14 8 7 11 22 13 23 9 9 7 9 12 19 29 26 20 16 7 4 5 7 6 5 7 9 10 10 12 15 18 20 23 24 22 25 27 29 31 28 33 32 29 30 32 34 34 38
7 8 9 6 7 20 17 10 11 15 5 16 21 26 32 30 28 22 18 10 3 3 4 3 4 6 7 8 11 12 15 18 20 21 22 24 26 29 29 30 31 29 30 31 32 31 36 40 44
11 5 6 8 13 17 18 18 8 18 3 8 17 25 35 33 31 23 20 10 6 3 2 3 5 5 5 9 9 11 14 17 17 20 23 24 24 25 26 26 28 30 34 33 32 33 37 41 45
9 8 10 12 15 15 15 10 8 17 17 12 18 32 33 31 27 23 20 15 9 5 4 4 5 5 5 7 7 10 12 15 17 19 22 22 22 23 24 25 26 28 31 31 31 31 33 39 42
11 16 14 8 9 7 9 6 5 11 23 20 25 35 34 31 30 29 25 17 12 9 7 5 7 7 5 4 6 9 10 13 17 18 21 21 22 23 23 24 25 26 26 28 26 27 29 35 37
28 11 5 5 7 4 5 7 12 12 26 27 33 32 33 32 32 26 17 16 15 13 10 8 8 8 5 3 6 8 9 13 14 17 20 20 21 21 22 24 26 25 24 22 23 24 26 30 34
10 10 6 3 8 3 7 14 1 18 31 32 31 31 32 35 30 27 23 20 19 16 13 12 11 9 8 6 6 7 8 11 13 16 18 18 19 20 19 20 24 26 21 18 19 21 23 27 29
12 8 8 5 14 5 6 12 3 18 29 30 32 33 35 36 37 35 29 21 19 20 17 15 13 12 10 7 6 6 8 10 12 14 15 15 17 18 17 18 21 23 19 16 16 17 17 21 25
13 8 6 10 10 4 4 18 10 17 28 32 32 36 39 42 40 35 32 27 26 24 21 19 17 15 13 10 8 7 8 9 12 13 14 15 14 15 15 16 19 19 19 16 15 14 14 15 19
13 9 10 3 2 7 11 14 17 23 29 35 35 37 44 43 35 39 37 31 31 28 26 23 20 18 15 11 9 8 8 9 11 12 13 13 12 12 13 14 16 17 17 19 18 13 13 13 12
11 9 6 3 2 5 0 21 19 19 28 55 51 45 45 44 44 46 45 42 36 27 26 27 24 21 19 15 10 10 10 11 11 11 11 11 11 11 10 12 12 15 16 18 19 19 16 14 13
5 10 8 4 4 2 8 15 8 4 12 26 38 44 42 44 48 51 52 47 39 33 28 28 26 23 21 18 15 14 14 11 11 12 11 11 11 10 9 9 11 14 16 15 17 19 17 19 21
10 9 12 14 7 6 5 8 10 4 8 7 22 37 40 38 43 52 55 52 44 32 28 29 29 26 24 20 17 14 12 10 11 13 12 11 11 10 9 9 10 11 13 15 18 20 17 18 19
9 13 13 8 7 5 3 5 14 4 11 13 18 23 27 31 37 51 58 51 42 35 31 29 30 29 25 21 19 17 14 15 15 14 13 12 11 10 8 8 8 8 11 13 17 20 20 20 21
22 16 16 10 6 4 9 11 12 10 13 7 13 26 25 22 24 36 48 51 45 40 34 31 31 31 26 23 21 19 15 15 16 15 14 12 10 9 8 7 6 6 9 13 15 18 19 22 23
8 15 5 6 4 10 4 2 16 9 10 10 29 37 26 22 24 34 45 58 52 44 36 32 32 32 28 23 22 20 18 17 18 15 13 11 10 9 7 6 5 5 8 10 13 15 18 21 22
12 13 12 15 9 5 4 13 13 3 5 8 26 29 22 21 22 30 38 51 51 42 34 31 31 33 28 25 23 22 20 19 19 16 14 13 11 10 8 6 5 4 6 8 11 13 16 19 20
12 9 10 14 5 6 8 13 15 3 4 11 23 26 25 22 22 29 35 42 43 37 31 28 30 31 29 25 24 22 20 18 18 17 16 15 13 11 10 8 6 4 4 6 10 11 14 16 19
5 13 8 5 8 7 8 9 11 12 19 15 18 31 30 26 24 27 32 37 37 32 28 29 28 27 26 26 25 22 20 20 20 19 17 16 14 13 11 8 6 4 3 5 7 8 11 13 16
6 6 4 10 9 10 5 12 13 16 16 20 30 35 30 28 26 25 28 31 32 33 33 30 30 32 31 29 27 24 22 21 20 19 17 17 16 15 12 10 8 6 3 3 5 5 8 10 13
2 11 12 10 11 6 5 12 5 9 19 45 46 40 32 25 23 23 25 30 35 37 36 33 32 35 33 31 29 27 25 22 20 18 19 19 18 16 14 12 10 8 6 4 4 3 5 7 9
Wind_Direction_500mb
347 192 224 81 56 66 352 216 286 88 76 47 80 81 107 60 64 189 150 164 313 315 325 336 339 351 37 35 46 47 42 51 53 50 48 47 56 51 54 56 59 52 46 44 49 41 42 42 36
180 98 182 94 83 69 276 276 224 138 129 120 83 69 49 83 68 141 140 143 319 327 332 354 357 24 48 49 47 49 44 58 63 56 55 55 65 61 57 57 59 57 56 47 45 55 58 58 60
85 47 54 85 98 156 174 203 142 125 153 156 107 73 85 92 115 141 130 32 327 334 350 8 14 28 44 34 32 33 49 55 62 55 55 55 67 61 64 65 60 61 59 57 65 60 61 61 58
85 107 65 74 64 272 118 201 114 142 211 217 135 78 94 118 136 179 121 345 341 345 6 21 25 43 34 36 38 55 58 57 48 57 66 60 76 70 67 67 62 67 68 67 57 55 59 67 65
104 80 60 74 304 313 267 125 140 142 154 128 151 143 87 132 148 157 176 336 349 2 11 29 39 43 49 49 53 50 61 59 62 46 57 70 88 79 73 73 66 79 73 68 64 57 53 60 63
100 84 72 126 272 9 288 152 136 130 128 112 86 111 124 158 158 171 198 345 7 17 29 40 51 34 49 47 42 52 62 66 51 48 62 67 67 59 73 73 70 79 76 72 69 65 62 62 60
104 78 135 134 176 355 211 192 170 139 136 55 125 109 154 174 171 184 204 240 25 36 39 42 42 21 39 42 46 45 53 59 68 68 66 64 65 68 73 80 74 80 78 74 64 56 66 62 59
95 94 101 140 179 226 183 173 191 154 116 139 170 175 197 187 179 187 198 153 35 51 41 36 43 32 39 58 52 49 55 70 74 71 68 67 66 67 76 85 76 69 64 64 62 55 56 54 51
100 66 140 188 160 209 167 145 153 163 147 166 176 168 184 176 182 190 191 186 66 56 47 33 48 37 49 45 50 58 70 75 73 73 71 72 72 75 68 81 66 63 73 68 65 62 56 49 49
85 97 191 189 193 166 174 180 161 153 156 192 188 193 168 174 186 190 189 172 89 69 55 50 74 66 51 48 60 68 77 83 83 80 78 78 77 72 69 69 76 71 69 73 70 60 57 50 49
107 147 169 163 193 163 153 138 161 140 247 221 208 181 170 178 187 193 191 183 160 94 66 83 104 77 61 59 65 77 85 89 88 88 88 81 79 75 73 74 75 70 72 71 68 65 59 54 51
86 68 141 145 134 146 152 153 174 194 212 232 216 202 183 188 193 193 198 194 184 144 170 151 122 109 79 63 73 92 91 93 96 94 89 83 83 82 78 74 69 69 69 68 62 59 57 50 49
99 152 117 133 143 140 152 167 191 227 226 209 195 190 192 190 191 193 198 200 197 203 204 159 140 136 95 71 93 102 100 100 101 97 94 92 88 85 79 72 65 61 62 57 56 57 53 52 50
132 119 119 133 131 130 160 192 195 203 195 191 186 189 192 194 200 201 206 200 208 212 207 179 165 150 126 100 120 120 112 110 104 102 100 97 92 84 79 74 67 56 54 53 51 54 50 50 49
129 85 65 161 168 118 142 281 236 218 188 182 181 190 193 200 208 214 211 206 219 216 210 191 182 170 155 158 151 138 125 108 108 108 101 96 91 83 79 74 69 57 48 46 46 48 49 49 49
78 60 123 278 151 144 127 268 287 201 190 186 190 197 202 207 214 209 208 218 221 222 216 204 194 191 193 191 163 142 128 113 112 106 103 99 93 87 80 75 69 60 47 42 41 45 46 49 50
11 181 192 289 197 127 156 259 330 187 194 199 204 208 209 212 210 207 211 222 227 226 223 214 204 201 200 195 172 154 132 117 114 110 109 105 97 89 80 77 70 65 56 48 45 45 39 45 49
187 174 211 206 213 157 175 261 273 209 215 225 225 221 218 218 219 213 212 216 218 224 221 216 212 205 204 195 180 166 142 134 127 126 125 111 105 95 84 74 70 67 62 58 57 43 38 39 44
144 136 171 236 199 155 226 268 256 230 226 235 233 228 223 223 217 213 213 218 219 223 224 222 219 210 205 198 194 182 163 152 145 138 128 119 112 100 86 73 69 66 61 59 60 49 41 37 26
128 132 177 21 60 137 271 270 258 226 231 235 239 233 230 221 214 209 210 214 220 230 225 221 216 213 209 206 213 200 190 180 158 147 138 137 122 109 95 83 77 74 64 60 63 58 42 22 356
142 151 176 178 133 18 336 293 286 210 232 243 235 235 231 225 218 212 212 213 215 220 225 222 220 215 214 214 219 219 206 189 173 164 162 153 135 121 106 91 76 72 70 68 75 70 60 45 50
186 186 131 129 105 215 67 268 296 267 242 236 229 221 222 220 222 221 216 213 213 215 218 220 222 218 217 218 220 214 209 206 196 183 177 168 150 135 123 102 83 75 76 78 79 75 69 59 58
189 126 129 113 101 86 308 65 268 339 254 229 214 193 195 213 223 220 218 216 211 210 217 220 221 220 220 221 218 217 221 217 208 199 189 177 163 153 139 115 93 80 75 76 75 73 71 68 63
149 91 51 57 73 343 215 153 273 198 211 184 204 196 196 204 210 213 215 211 207 208 212 219 221 220 221 223 220 223 228 229 221 212 198 189 178 171 156 131 112 92 75 73 75 76 74 67 67
108 103 34 5 4 222 344 83 248 237 231 209 195 197 199 209 210 207 204 202 205 210 214 218 219 220 223 224 224 226 230 218 215 214 207 203 198 189 176 156 130 96 79 78 78 77 72 69 68
183 154 149 188 193 208 67 226 252 264 318 246 206 192 199 204 203 203 203 202 206 211 216 218 217 219 223 224 221 221 218 212 214 212 212 210 208 202 197 178 148 117 88 84 83 77 75 72 69
192 187 151 108 28 58 203 280 298 154 187 161 164 182 189 191 194 192 192 199 205 212 217 216 213 217 221 222 217 215 215 215 215 217 217 215 214 211 208 191 166 144 111 94 83 81 80 72 69
136 162 82 1 134 229 259 270 240 225 216 195 188 193 188 185 182 183 187 193 202 209 211 211 214 218 219 216 212 211 213 212 213 215 217 218 215 214 211 199 184 178 135 96 84 74 74 68 68
146 178 112 122 156 161 178 252 218 223 191 184 197 195 190 186 184 185 189 195 202 205 208 212 218 213 212 213 212 211 213 214 213 214 215 216 218 219 216 210 207 198 166 120 95 76 74 64 63
13 177 155 140 209 225 161 261 170 238 203 185 190 189 189 189 184 185 190 198 202 206 210 214 217 214 211 212 213 212 214 216 216 215 216 218 218 219 218 218 216 208 197 188 148 108 78 75 65
Wind_Speed_850mb
3 2 4 1 8 10 2 3 5 6 5 3 8 8 13 14 6 3 16 5 6 14 18 18 15 12 13 13 15 14 14 19 20 22 27 25 34 29 29 31 34 34 36 36 39 40 39 35 27
1 3 1 5 9 7 6 4 5 4 15 25 14 8 10 6 6 14 9 1 7 15 16 15 13 12 11 13 13 14 15 19 21 24 25 25 27 28 32 33 36 37 37 40 41 37 31 35 36
3 3 3 8 6 6 6 8 9 12 25 4 9 12 6 7 13 11 5 1 8 14 14 13 13 12 13 11 12 14 15 15 14 20 23 23 28 29 31 35 38 37 40 38 31 29 30 33 32
2 4 9 8 2 3 1 12 15 14 8 4 15 12 12 10 9 6 3 4 10 14 13 11 11 12 13 13 10 13 12 15 13 11 18 21 28 28 30 34 33 37 40 31 28 26 24 30 36
3 7 8 8 5 5 7 9 21 7 5 8 2 7 10 10 8 8 3 5 10 12 10 9 11 11 14 12 9 9 10 12 12 15 16 18 22 23 25 31 32 33 29 26 28 29 25 33 30
5 6 9 5 4 6 6 9 10 9 9 6 9 12 7 12 11 10 4 3 8 10 9 9 8 10 12 13 15 13 12 12 15 17 15 18 19 21 23 35 30 32 29 31 31 28 35 34 31
9 7 8 10 5 2 7 10 7 7 14 4 15 9 8 23 19 12 6 1 7 8 10 12 11 10 12 11 13 11 14 15 14 17 20 22 23 25 26 38 30 28 28 28 34 37 38 34 33
7 9 7 4 10 8 11 18 6 9 6 15 7 6 6 30 25 19 11 3 5 10 11 12 8 8 8 9 8 15 16 15 17 21 23 24 25 26 26 33 26 25 29 33 32 35 34 31 30
5 9 5 13 14 8 23 7 9 8 14 10 8 4 4 31 28 22 14 8 7 9 8 7 8 4 7 9 12 13 14 18 20 22 24 24 24 27 24 28 21 27 32 32 32 32 32 33 33
8 7 14 8 7 11 22 13 23 9 9 7 9 12 19 29 26 20 16 7 4 5 7 6 5 7 9 10 10 12 15 18 20 23 24 22 25 27 29 31 28 33 32 29 30 32 34 34 38
7 8 9 6 7 20 17 10 11 15 5 16 21 26 32 30 28 22 18 10 3 3 4 3 4 6 7 8 11 12 15 18 20 21 22 24 26 29 29 30 31 29 30 31 32 31 36 40 44
11 5 6 8 13 17 18 18 8 18 3 8 17 25 35 33 31 23 20 10 6 3 2 3 5 5 5 9 9 11 14 17 17 20 23 24 24 25 26 26 28 30 34 33 32 33 37 41 45
9 8 10 12 15 15 15 10 8 17 17 12 18 32 33 31 27 23 20 15 9 5 4 4 5 5 5 7 7 10 12 15 17 19 22 22 22 23 24 25 26 28 31 31 31 31 33 39 42
11 16 14 8 9 7 9 6 5 11 23 20 25 35 34 31 30 29 25 17 12 9 7 5 7 7 5 4 6 9 10 13 17 18 21 21 22 23 23 24 25 26 26 28 26 27 29 35 37
28 11 5 5 7 4 5 7 12 12 26 27 33 32 33 32 32 26 17 16 15 13 10 8 8 8 5 3 6 8 9 13 14 17 20 20 21 21 22 24 26 25 24 22 23 24 26 30 34
10 10 6 3 8 3 7 14 1 18 31 32 31 31 32 35 30 27 23 20 19 16 13 12 11 9 8 6 6 7 8 11 13 16 18 18 19 20 19 20 24 26 21 18 19 21 23 27 29
12 8 8 5 14 5 6 12 3 18 29 30 32 33 35 36 37 35 29 21 19 20 17 15 13 12 10 7 6 6 8 10 12 14 15 15 17 18 17 18 21 23 19 16 16 17 17 21 25
13 8 6 10 10 4 4 18 10 17 28 32 32 36 39 42 40 35 32 27 26 24 21 19 17 15 13 10 8 7 8 9 12 13 14 15 14 15 15 16 19 19 19 16 15 14 14 15 19
13 9 10 3 2 7 11 14 17 23 29 35 35 37 44 43 35 39 37 31 31 28 26 23 20 18 15 11 9 8 8 9 11 12 13 13 12 12 13 14 16 17 17 19 18 13 13 13 12
11 9 6 3 2 5 0 21 19 19 28 55 51 45 45 44 44 46 45 42 36 27 26 27 24 21 19 15 10 10 10 11 11 11 11 11 11 11 10 12 12 15 16 18 19 19 16 14 13
5 10 8 4 4 2 8 15 8 4 12 26 38 44 42 44 48 51 52 47 39 33 28 28 26 23 21 18 15 14 14 11 11 12 11 11 11 10 9 9 11 14 16 15 17 19 17 19 21
10 9 12 14 7 6 5 8 10 4 8 7 22 37 40 38 43 52 55 52 44 32 28 29 29 26 24 20 17 14 12 10 11 13 12 11 11 10 9 9 10 11 13 15 18 20 17 18 19
9 13 13 8 7 5 3 5 14 4 11 13 18 23 27 31 37 51 58 51 42 35 31 29 30 29 25 21 19 17 14 15 15 14 13 12 11 10 8 8 8 8 11 13 17 20 20 20 21
22 16 16 10 6 4 9 11 12 10 13 7 13 26 25 22 24 36 48 51 45 40 34 31 31 31 26 23 21 19 15 15 16 15 14 12 10 9 8 7 6 6 9 13 15 18 19 22 23
8 15 5 6 4 10 4 2 16 9 10 10 29 37 26 22 24 34 45 58 52 44 36 32 32 32 28 23 22 20 18 17 18 15 13 11 10 9 7 6 5 5 8 10 13 15 18 21 22
12 13 12 15 9 5 4 13 13 3 5 8 26 29 22 21 22 30 38 51 51 42 34 31 31 33 28 25 23 22 20 19 19 16 14 13 11 10 8 6 5 4 6 8 11 13 16 19 20
12 9 10 14 5 6 8 13 15 3 4 11 23 26 25 22 22 29 35 42 43 37 31 28 30 31 29 25 24 22 20 18 18 17 16 15 13 11 10 8 6 4 4 6 10 11 14 16 19
5 13 8 5 8 7 8 9 11 12 19 15 18 31 30 26 24 27 32 37 37 32 28 29 28 27 26 26 25 22 20 20 20 19 17 16 14 13 11 8 6 4 3 5 7 8 11 13 16
6 6 4 10 9 10 5 12 13 16 16 20 30 35 30 28 26 25 28 31 32 33 33 30 30 32 31 29 27 24 22 21 20 19 17 17 16 15 12 10 8 6 3 3 5 5 8 10 13
2 11 12 10 11 6 5 12 5 9 19 45 46 40 32 25 23 23 25 30 35 37 36 33 32 35 33 31 29 27 25 22 20 18 19 19 18 16 14 12 10 8 6 4 4 3 5 7 9
Wind_Direction_850mb
347 192 224 81 56 66 352 216 286 88 76 47 80 81 107 60 64 189 150 164 313 315 325 336 339 351 37 35 46 47 42 51 53 50 48 47 56 51 54 56 59 52 46 44 49 41 42 42 36
180 98 182 94 83 69 276 276 224 138 129 120 83 69 49 83 68 141 140 143 319 327 332 354 357 24 48 49 47 49 44 58 63 56 55 55 65 61 57 57 59 57 56 47 45 55 58 58 60
85 47 54 85 98 156 174 203 142 125 153 156 107 73 85 92 115 141 130 32 327 334 350 8 14 28 44 34 32 33 49 55 62 55 55 55 67 61 64 65 60 61 59 57 65 60 61 61 58
85 107 65 74 64 272 118 201 114 142 211 217 135 78 94 118 136 179 121 345 341 345 6 21 25 43 34 36 38 55 58 57 48 57 66 60 76 70 67 67 62 67 68 67 57 55 59 67 65
104 80 60 74 304 313 267 125 140 142 154 128 151 143 87 132 148 157 176 336 349 2 11 29 39 43 49 49 53 50 61 59 62 46 57 70 88 79 73 73 66 79 73 68 64 57 53 60 63
100 84 72 126 272 9 288 152 136 130 128 112 86 111 124 158 158 171 198 345 7 17 29 40 51 34 49 47 42 52 62 66 51 48 62 67 67 59 73 73 70 79 76 72 69 65 62 62 60
104 78 135 134 176 355 211 192 170 139 136 55 125 109 154 174 171 184 204 240 25 36 39 42 42 21 39 42 46 45 53 59 68 68 66 64 65 68 73 80 74 80 78 74 64 56 66 62 59
95 94 101 140 179 226 183 173 191 154 116 139 170 175 197 187 179 187 198 153 35 51 41 36 43 32 39 58 52 49 55 70 74 71 68 67 66 67 76 85 76 69 64 64 62 55 56 54 51
100 66 140 188 160 209 167 145 153 163 147 166 176 168 184 176 182 190 191 186 66 56 47 33 48 37 49 45 50 58 70 75 73 73 71 72 72 75 68 81 66 63 73 68 65 62 56 49 49
85 97 191 189 193 166 174 180 161 153 156 192 188 193 168 174 186 190 189 172 89 69 55 50 74 66 51 48 60 68 77 83 83 80 78 78 77 72 69 69 76 71 69 73 70 60 57 50 49
107 147 169 163 193 163 153 138 161 140 247 221 208 181 170 178 187 193 191 183 160 94 66 83 104 77 61 59 65 77 85 89 88 88 88 81 79 75 73 74 75 70 72 71 68 65 59 54 51
86 68 141 145 134 146 152 153 174 194 212 232 216 202 183 188 193 193 198 194 184 144 170 151 122 109 79 63 73 92 91 93 96 94 89 83 83 82 78 74 69 69 69 68 62 59 57 50 49
99 152 117 133 143 140 152 167 191 227 226 209 195 190 192 190 191 193 198 200 197 203 204 159 140 136 95 71 93 102 100 100 101 97 94 92 88 85 79 72 65 61 62 57 56 57 53 52 50
132 119 119 133 131 130 160 192 195 203 195 191 186 189 192 194 200 201 206 200 208 212 207 179 165 150 126 100 120 120 112 110 104 102 100 97 92 84 79 74 67 56 54 53 51 54 50 50 49
129 85 65 161 168 118 142 281 236 218 188 182 181 190 193 200 208 214 211 206 219 216 210 191 182 170 155 158 151 138 125 108 108 108 101 96 91 83 79 74 69 57 48 46 46 48 49 49 49
78 60 123 278 151 144 127 268 287 201 190 186 190 197 202 207 214 209 208 218 221 222 216 204 194 191 193 191 163 142 128 113 112 106 103 99 93 87 80 75 69 60 47 42 41 45 46 49 50
11 181 192 289 197 127 156 259 330 187 194 199 204 208 209 212 210 207 211 222 227 226 223 214 204 201 200 195 172 154 132 117 114 110 109 105 97 89 80 77 70 65 56 48 45 45 39 45 49
187 174 211 206 213 157 175 261 273 209 215 225 225 221 218 218 219 213 212 216 218 224 221 216 212 205 204 195 180 166 142 134 127 126 125 111 105 95 84 74 70 67 62 58 57 43 38 39 44
144 136 171 236 199 155 226 268 256 230 226 235 233 228 223 223 217 213 213 218 219 223 224 222 219 210 205 198 194 182 163 152 145 138 128 119 112 100 86 73 69 66 61 59 60 49 41 37 26
128 132 177 21 60 137 271 270 258 226 231 235 239 233 230 221 214 209 210 214 220 230 225 221 216 213 209 206 213 200 190 180 158 147 138 137 122 109 95 83 77 74 64 60 63 58 42 22 356
142 151 176 178 133 18 336 293 286 210 232 243 235 235 231 225 218 212 212 213 215 220 225 222 220 215 214 214 219 219 206 189 173 164 162 153 135 121 106 91 76 72 70 68 75 70 60 45 50
186 186 131 129 105 215 67 268 296 267 242 236 229 221 222 220 222 221 216 213 213 215 218 220 222 218 217 218 220 214 209 206 196 183 177 168 150 135 123 102 83 75 76 78 79 75 69 59 58
189 126 129 113 101 86 308 65 268 339 254 229 214 193 195 213 223 220 218 216 211 210 217 220 221 220 220 221 218 217 221 217 208 199 189 177 163 153 139 115 93 80 75 76 75 73 71 68 63
149 91 51 57 73 343 215 153 273 198 211 184 204 196 196 204 210 213 215 211 207 208 212 219 221 220 221 223 220 223 228 229 221 212 198 189 178 171 156 131 112 92 75 73 75 76 74 67 67
108 103 34 5 4 222 344 83 248 237 231 209 195 197 199 209 210 207 204 202 205 210 214 218 219 220 223 224 224 226 230 218 215 214 207 203 198 189 176 156 130 96 79 78 78 77 72 69 68
183 154 149 188 193 208 67 226 252 264 318 246 206 192 199 204 203 203 203 202 206 211 216 218 217 219 223 224 221 221 218 212 214 212 212 210 208 202 197 178 148 117 88 84 83 77 75 72 69
192 187 151 108 28 58 203 280 298 154 187 161 164 182 189 191 194 192 192 199 205 212 217 216 213 217 221 222 217 215 215 215 215 217 217 215 214 211 208 191 166 144 111 94 83 81 80 72 69
136 162 82 1 134 229 259 270 240 225 216 195 188 193 188 185 182 183 187 193 202 209 211 211 214 218 219 216 212 211 213 212 213 215 217 218 215 214 211 199 184 178 135 96 84 74 74 68 68
146 178 112 122 156 161 178 252 218 223 191 184 197 195 190 186 184 185 189 195 202 205 208 212 218 213 212 213 212 211 213 214 213 214 215 216 218 219 216 210 207 198 166 120 95 76 74 64 63
13 177 155 140 209 225 161 261 170 238 203 185 190 189 189 189 184 185 190 198 202 206 210 214 217 214 211 212 213 212 214 216 216 215 216 218 218 219 218 218 216 208 197 188 148 108 78 75 65